STARLINK-11740, 64382

Orbit data source: Space-Track

STARLINK-11740, 64382 is a payload satellite owned by SpaceX/Seattle (US) in LEO that was launched on Fri, 13 Jun 2025 UTC via an FALCON 9 launch vehicle from the Air Force Eastern Test Range (AFETR). Payload-class satellites include a variety of spacecraft equipped with specific instruments for various scientific and technological missions. These include communications satellites like Starlink; space stations such as the ISS; scientific satellites like the Hubble; Earth observation satellites from companies like Planet Labs, Umbra, and HawkEye 360; GPS; miniature CubeSats for education and research; and military/defense satellites.

Loading next visibility...
Identifier
64382, 2025-127N
Orbit
LEO
Country
Flag of USUS
Related business
Manufacturer
SpaceX/Seattle
Mission
Operational Commercial Communications
Bus & Motor
STARLINK V2MD, Unknown motor
Mass
960 kg wet, ~910 kg dry
Launch date (UTC)
2025-06-13 (1 year ago)
Launch vehicle
FALCON 9
Launch site
Air Force Eastern Test Range (AFETR)
Object type
Payload
Rocket body
Debris
Shape & HBR
Box + 2 Pan, 18.1 m
Radar Cross Section
36.964 m², Large (>1 m²)

Expand to show TLE details & history
Last TLE update: 19 hours ago

TLE from 19 hours ago
0 STARLINK-11740
1 64382U 25127N   26171.10809153  .00148823  00000-0  11403-2 0  9991
2 64382  42.9993 186.8733 0002274 281.5014  78.5598 15.70887361 59612
Epoch: 2026-06-20T02:35Z
TLE epoch observation values (Epoch: 2026-06-20T02:35:39.108Z)
Latitude
-0.00002°
Longitude
-120.36713°
Altitude
355.827 km
Speed
7.698 km/s
True Right ascension
12h 27m 29s
True Declination
0° 00' 00"
Sunlit
Object was in daylight at epoch
Visualization orbit readout
Latitude
Unknown
Longitude
Unknown
Altitude
Unknown
Speed
Unknown
Apparent Right ascension
Unknown
Apparent Declination
Unknown
Sunlit
N/A
Visualization observer readout
Local Sidereal Time
08:41:42
Azimuth
Unknown
Elevation
Unknown
Doppler factor
Unknown
Orbital elements
Apogee altitude
359.873 km
Perigee altitude
356.81 km
Semi-major axis
6,736.478 km
Eccentricity
0.00023
Inclination
42.9993°
RAAN
186.8733°
Arg. of periapsis
281.5014°
True anomaly
78.58534°
Mean anomaly
78.5598°
Eccentric anomaly
78.57257°
Mean motion
3.92549 °/min
Orbital period
91.71 mins
BSTAR
0.0011403
Loading maneuver chart data...
Computing Atmospheric mass density...
Loading historical data...
Loading historical data...
Loading historical data...
Loading historical data...
Loading historical data...
Loading historical data...
Loading historical data...

Documentation

Showing up to 5 results
|